カタログに戻る

STARLINK-3446

運用中通信VLEO
NORAD 51747·PAYLOAD·🇺🇸 United States

打ち上げ Feb 21, 2022 から Cape Canaveral Space Force Station

Loading…

次のパス (今後24時間)

TLE

最新Source: CelesTrak SupGP

元期: Sep 14, 2026, 20:48 UTC

1 51747C 22016AK  26257.86715278 -.00016839  00000+0 -54142-3 0  2575
2 51747  53.1589 177.0494 0001419  91.3590  33.4119 15.31715574    12

AllMySatでSTARLINK-3446をリアルタイム追跡

Download on the App Store